C/2013 US10 ( Catalina )

Japanese version
Home page
Updated on May 29, 2016

---------------------------------------------------------------------

* Profile

Discovery Date October 31, 2013
Magnitude 18.6 mag
Discoverer R. A. Kowalski (Catalina Sky Survey)

* Pictures

* Orbital Elements

Epoch 2015 Dec. 4.0 TT = JDT 2457360.5
T 2015 Nov. 15.72205 TT                                 MPCW
q   0.8229788            (2000.0)            P               Q
z  -0.0003908      Peri.  340.35947     -0.90560871     -0.42049021
 +/-0.0000001      Node   186.14477     -0.28587100     +0.50884172
e   1.0003216      Incl.  148.87832     -0.31329002     +0.75117780
From 3683 observations 2013 Aug. 14-2016 May 12, mean residual 0".5.

* Finding Charts

* Magnitudes Graph

        m1 = 4.0 + 5 log d + 10.5 log r  [   ,-87]  (             - 2015 Aug. 20)
        m1 = 5.3 + 5 log d +  5.0 log r  [-87,  0]  (2015 Aug. 20 - 2015 Nov. 15)
        m1 = 5.7 + 5 log d + 10.0 log r  [  0, 65]  (2015 Nov. 15 - 2016 Jan. 19)
        m1 = 8.0 + 5 log d -  5.0 log r  [ 65, 78]  (2016 Jan. 19 - 2016 Feb.  1)
        m1 = 5.0 + 5 log d + 10.0 log r  [ 78,   ]  (2016 Feb.  1 -             )

        * Gray curve is:  m1 = 4.0 + 5 log d + 10.5 log r

---------------------------------------------------------------------

The orbital elements are published on M.P.E.C. 2016-K18.
The charts are made with StellaNavigator Ver.8 (AstroArts).
The magnitudes graphs are made with Comet for Windows.

---------------------------------------------------------------------

Copyright(C) Seiichi Yoshida (comet@aerith.net). All rights reserved.